Location: Doschendorf
(50.0069°N, 11.0602°E)
Time: 13:46:07
(UTC+00:00)

Cosmos 2344 - Pass Details

Date: 17 November 2019
Orbit: 1258 x 2984 km, 63.3° (Epoch: 07 December)

Event Time Altitude Azimuth Distance (km) Brightness Sun altitude
Rises 16:38:47 0° 237° (WSW) 4,221 8.0 -11.1°
Reaches altitude 10° 16:41:31 10° 241° (WSW) 3,237 7.1 -11.5°
Maximum altitude 16:48:57 63° 322° (NW) 1,460 4.0 -12.6°
Drops below altitude 10° 16:57:37 10° 44° (NE) 3,744 5.5 -14.0°
Enters shadow 16:57:38 10° 44° (NE) 3,751 5.5 -14.0°
